Wind_Speed
6 5 3 2 5 5 2 1 1 2 1 1 2 1 4 3 2 3 2 1 1 3 4 2 1 3 2 6 11 9 4 2 1 1 3 4 9 15 20 17 18 10 4 4 8 11 16 18 16 14 14 13 12 11 10 9 9 10 10 10 9 9 9 9 10 11 12 13 12 11 10 10 11 11 11 10 10 10 11 11 11 11 12 13 13 12 13 13 13 12 11 10 9 9 8 8 6
5 4 2 2 5 4 1 1 2 1 1 2 2 3 4 1 2 4 7 6 5 4 3 3 3 4 4 9 10 7 7 4 4 2 2 11 14 16 22 18 17 11 5 5 7 10 14 16 16 15 14 14 13 12 11 10 9 10 9 10 9 9 9 9 10 11 11 12 11 11 10 10 11 12 11 11 11 10 10 11 11 12 13 13 13 13 13 13 13 12 11 10 9 9 9 9 9
5 4 2 1 2 2 1 2 2 0 1 3 3 3 2 3 4 6 9 9 8 3 5 3 4 3 4 7 4 4 3 3 8 6 3 15 16 19 24 18 17 11 6 5 7 8 11 14 17 15 14 14 13 12 11 10 10 10 9 10 10 10 10 10 10 10 11 11 11 11 10 9 11 12 12 11 11 11 10 11 11 12 13 13 14 14 14 15 14 12 12 11 10 10 10 10 10
4 4 2 2 2 2 2 1 2 3 2 3 3 5 3 4 6 7 7 6 4 2 4 2 3 3 5 6 4 4 3 3 7 7 5 15 17 21 24 18 16 11 5 5 6 6 8 12 16 15 15 14 13 12 11 11 10 10 10 10 10 10 10 10 11 11 11 12 12 11 10 10 11 12 12 12 11 11 11 11 12 12 13 13 14 15 15 16 15 13 13 13 12 12 11 10 10
3 3 3 2 2 0 2 1 1 3 3 3 1 5 4 4 6 4 2 4 4 3 3 2 3 3 6 5 3 3 3 4 8 12 10 19 21 21 21 17 15 14 5 6 6 5 7 10 14 15 15 15 14 12 11 11 10 10 10 9 10 10 10 11 11 12 13 12 12 12 12 11 11 12 11 11 12 12 13 12 13 12 13 14 14 15 16 16 16 14 13 13 13 13 12 11 10
1 2 2 1 1 1 1 1 2 2 4 4 2 4 4 3 4 2 3 5 5 3 4 4 4 4 5 3 4 5 4 4 8 13 15 23 23 19 20 17 16 18 9 5 7 5 6 9 13 16 16 15 14 12 11 11 10 10 10 10 10 10 11 11 12 12 13 13 12 13 12 12 12 12 11 12 12 12 13 13 13 13 13 15 14 15 17 16 16 14 14 14 14 14 13 12 11
2 1 0 0 1 1 2 3 4 3 3 3 4 4 3 4 3 4 4 2 4 6 5 4 6 7 4 2 4 6 11 13 8 12 18 20 19 18 19 17 16 19 13 2 8 5 5 8 11 15 16 13 12 11 11 12 10 10 10 10 10 10 11 12 13 12 12 12 13 14 13 13 13 12 12 12 12 12 13 13 14 13 14 15 14 16 17 16 16 15 15 15 15 15 14 14 11
1 1 1 3 1 1 2 3 3 3 1 1 2 2 3 3 2 4 3 2 2 4 3 0 2 5 2 3 4 2 14 21 13 15 20 22 23 23 22 20 20 20 16 7 4 7 7 7 10 14 14 12 11 10 10 10 10 10 10 9 9 10 11 11 12 13 12 13 13 14 13 13 13 12 12 13 13 13 13 13 14 13 14 15 14 15 16 16 16 15 15 16 16 16 15 14 12
2 0 1 2 1 1 1 2 3 3 1 2 1 0 2 1 2 5 4 3 1 3 3 5 4 3 2 5 4 1 13 23 19 20 24 25 27 27 28 27 26 24 20 16 8 1 5 6 9 9 8 9 10 9 9 9 9 9 9 9 9 10 11 10 11 13 14 13 13 14 14 14 14 13 13 14 14 14 14 14 13 13 14 15 15 15 15 14 15 15 15 16 17 16 16 15 15
1 0 1 1 1 1 4 3 3 2 2 1 1 2 3 1 4 5 5 3 1 2 3 7 4 3 4 4 3 2 13 23 23 25 26 26 27 29 31 31 30 29 26 22 19 12 7 4 3 0 2 4 7 7 8 8 8 9 9 9 9 10 11 10 11 13 14 13 13 14 14 13 14 14 14 14 14 14 15 15 14 14 15 15 16 15 15 15 14 15 14 16 16 17 17 15 17
2 3 1 1 1 2 4 3 3 2 2 2 3 5 3 3 6 5 3 3 0 1 4 7 5 5 5 3 2 6 15 23 25 24 23 25 27 30 32 32 32 31 31 28 24 21 16 12 9 7 6 5 5 6 8 7 6 8 8 9 9 9 10 11 11 13 13 13 13 14 14 13 15 15 15 15 14 15 15 15 15 15 15 15 16 16 16 16 16 16 16 16 15 17 17 16 18
1 3 3 1 2 3 4 2 3 3 5 3 2 6 1 4 6 4 2 3 4 4 5 6 2 3 4 3 2 8 18 24 22 20 21 25 28 29 31 33 33 32 32 31 28 27 24 20 17 15 12 9 8 6 5 6 7 8 8 9 9 9 10 11 12 13 14 14 14 14 14 14 16 16 16 16 15 16 16 16 16 16 15 16 16 17 17 18 17 17 17 17 17 18 18 18 19
1 2 4 1 3 3 3 2 3 1 4 2 2 5 3 4 4 5 5 5 6 4 4 6 3 2 4 2 1 6 15 21 18 17 20 26 27 29 31 32 34 34 32 31 32 32 30 28 25 22 19 14 11 9 6 4 5 8 10 10 10 10 10 11 12 13 14 15 15 14 14 15 16 17 16 17 17 17 17 17 17 17 16 16 17 17 18 19 18 17 17 18 18 18 18 18 18
2 3 4 1 1 1 2 1 0 2 2 3 2 3 5 4 2 4 6 6 6 1 2 4 2 3 3 1 3 4 9 16 16 16 20 25 27 29 31 32 34 35 35 34 34 34 33 32 30 28 25 22 18 15 12 10 8 7 9 12 12 12 11 12 13 13 14 16 17 15 15 15 17 17 17 18 18 17 18 18 18 18 17 17 18 18 18 19 19 18 19 19 19 18 18 18 19
3 2 4 1 2 2 1 1 2 4 2 3 3 3 6 4 1 4 4 5 1 4 3 4 5 2 2 2 1 3 7 13 14 16 19 24 27 30 31 32 33 35 37 37 36 36 36 34 33 32 30 28 25 24 21 18 15 10 8 10 12 12 12 13 14 15 15 16 18 18 16 15 17 18 18 20 20 19 19 20 20 18 18 18 19 19 19 19 20 20 20 20 20 19 19 19 20
3 3 4 2 1 1 2 1 3 3 3 3 3 3 7 5 3 3 1 4 2 4 1 4 5 5 4 4 5 3 10 13 14 17 22 25 27 30 32 33 33 35 36 37 37 37 37 37 36 34 33 31 30 28 27 25 23 19 15 12 10 11 12 13 14 15 16 17 19 20 19 16 17 19 19 20 21 21 20 21 22 20 18 19 20 19 19 20 20 21 20 20 20 20 20 19 20
3 4 3 1 1 2 3 2 3 3 3 4 4 2 6 1 2 3 2 5 6 4 6 3 4 7 6 7 9 11 15 16 19 22 25 26 26 29 32 33 33 34 34 35 36 36 37 37 38 37 35 34 33 32 31 29 28 26 24 21 17 14 13 13 13 14 16 17 18 20 22 20 16 17 20 20 21 22 22 21 22 22 19 19 21 21 21 21 21 22 22 21 20 20 21 20 21
4 3 2 1 3 3 4 5 5 3 2 4 4 1 8 6 4 5 4 7 6 6 6 5 6 7 8 12 16 17 19 20 23 26 26 24 24 25 26 28 31 32 32 33 34 35 36 37 37 38 37 36 35 35 34 34 32 31 29 27 25 23 21 19 15 13 15 17 18 19 21 23 20 17 19 21 22 23 23 22 21 21 20 19 21 22 21 22 21 22 23 23 22 20 21 22 22
3 3 2 3 5 3 4 5 4 2 3 5 3 2 5 5 6 3 3 3 4 7 4 5 7 7 9 13 17 19 21 23 24 25 24 22 22 21 21 24 27 29 31 31 32 33 34 35 37 37 37 36 36 36 35 35 34 33 32 30 29 28 26 25 23 20 18 16 18 19 21 24 24 22 20 21 22 24 25 25 25 23 22 21 21 23 23 23 22 23 23 23 23 21 22 23 24
2 3 1 5 5 2 2 3 4 3 4 6 4 1 3 1 2 1 4 4 2 4 3 3 5 5 6 8 14 18 20 22 23 24 23 21 21 20 21 22 24 26 28 29 30 32 32 33 34 35 36 36 37 37 36 35 35 35 34 33 33 32 30 29 27 25 23 21 19 18 21 24 26 26 24 22 21 23 26 27 28 27 25 24 23 24 24 24 23 23 23 23 23 23 25 25 26
1 3 3 5 3 2 2 3 4 3 4 6 4 1 3 1 2 3 7 5 1 4 5 5 7 7 7 6 10 15 17 19 21 22 21 21 21 21 21 21 22 23 25 28 30 31 30 30 31 32 33 35 36 37 37 36 35 35 35 35 36 35 35 33 31 28 26 25 24 22 20 21 24 27 28 26 23 22 26 28 30 29 29 27 26 26 25 26 25 25 25 23 24 26 26 26 27
2 1 4 4 4 2 4 4 4 2 4 5 3 1 1 1 3 3 7 4 4 5 4 7 9 8 8 7 10 13 14 15 17 19 19 20 20 21 21 21 22 24 25 27 29 29 29 28 28 29 31 32 33 34 36 36 35 35 35 35 36 36 36 36 35 33 30 28 26 24 24 23 22 23 27 28 26 24 26 29 31 30 30 30 30 30 28 28 28 27 27 26 26 27 27 26 27
1 3 2 3 3 3 3 3 3 3 6 5 4 2 2 3 2 2 4 3 5 5 7 8 9 10 12 11 10 10 10 12 14 16 17 18 19 20 21 21 22 23 25 25 25 27 28 28 27 26 28 29 29 31 33 35 35 34 34 34 35 35 35 35 35 35 33 32 30 27 26 25 24 22 22 24 27 27 28 30 32 32 31 31 31 32 32 31 31 29 28 29 28 27 29 27 28
4 1 2 2 2 3 4 3 2 4 6 4 5 3 2 4 2 2 3 3 5 7 9 11 11 15 16 12 9 9 10 12 14 15 17 18 19 19 20 20 20 20 22 23 23 25 27 28 27 25 27 28 27 28 30 32 33 32 32 33 34 33 33 33 33 32 31 31 31 30 29 27 25 24 22 22 23 26 28 30 33 35 35 35 33 33 35 35 34 33 31 31 30 29 30 29 29
4 0 2 1 0 2 4 2 2 4 3 3 6 3 3 5 4 3 4 6 7 8 9 11 12 13 13 10 8 9 10 12 14 15 16 18 18 18 19 19 19 21 21 21 21 23 26 27 26 26 27 27 27 27 28 29 30 30 29 30 31 31 31 30 30 31 30 29 28 29 31 31 28 26 24 22 22 25 28 30 32 35 37 39 39 37 37 38 37 37 36 34 32 31 32 31 31
1 1 3 2 3 3 2 1 2 2 2 4 6 1 2 3 2 1 6 8 7 9 9 9 10 10 9 8 8 9 10 11 13 13 14 16 17 17 19 20 20 21 21 19 20 21 25 26 26 27 27 26 26 27 28 29 30 30 29 28 27 28 27 27 28 28 28 28 27 26 29 32 31 28 27 24 23 23 26 28 30 32 34 38 41 41 39 40 40 39 39 38 36 35 35 35 34
2 1 1 2 4 3 2 3 5 2 2 5 6 3 2 2 1 2 7 9 8 9 9 8 10 9 8 7 7 11 11 12 14 14 13 14 15 16 16 19 20 21 21 20 19 20 24 26 27 28 28 26 26 26 27 28 29 29 29 29 28 27 25 25 25 26 26 26 26 26 27 31 33 31 28 26 24 24 24 25 26 28 33 35 37 41 42 41 42 41 42 42 39 38 38 38 37
2 1 1 5 7 2 3 4 6 2 2 6 7 2 1 0 1 5 9 9 9 11 9 7 9 8 8 8 7 9 11 13 16 15 13 12 13 14 14 16 19 20 22 21 18 19 23 26 28 30 29 26 25 26 27 27 28 29 29 30 29 28 25 24 24 24 25 25 26 27 28 30 32 32 30 27 26 25 25 25 25 26 30 34 35 38 41 42 44 44 44 44 42 41 40 40 39
1 4 1 6 9 4 3 5 4 1 2 5 7 2 1 4 7 8 8 10 9 10 9 7 8 7 7 8 6 7 10 14 15 13 12 12 12 14 14 14 18 21 22 21 17 18 22 26 30 32 29 25 25 26 26 26 27 28 29 29 30 28 26 24 24 22 23 23 25 28 28 29 32 33 32 30 28 26 25 24 25 26 27 31 33 36 37 39 43 45 46 45 44 42 41 41 41
3 6 3 4 8 5 4 5 4 1 1 4 5 4 5 7 10 6 7 11 10 9 9 7 7 7 7 7 6 6 9 13 13 11 12 13 14 15 16 16 21 25 26 25 21 20 24 29 31 31 28 24 24 25 26 26 27 27 27 28 28 28 27 25 24 22 22 22 24 27 29 30 32 35 34 32 30 27 26 25 24 25 27 29 31 33 35 37 38 42 45 45 45 44 43 43 43
4 5 3 4 3 6 7 5 5 4 1 4 3 7 7 7 8 5 7 10 12 10 9 8 7 7 6 6 6 5 7 12 11 10 12 15 18 20 22 23 27 29 29 28 25 24 26 29 29 27 25 23 25 26 26 27 26 26 26 26 26 26 26 26 24 22 21 21 23 26 29 31 33 36 35 33 31 28 26 25 24 24 24 27 30 31 34 38 37 36 39 41 43 44 44 44 45
4 4 4 3 0 5 10 7 3 3 3 5 4 6 7 7 6 4 7 9 11 10 8 8 8 8 7 6 6 5 5 9 12 14 16 18 21 24 26 26 28 28 28 26 25 25 25 25 25 25 25 25 25 25 26 26 26 26 25 25 25 25 25 25 23 21 20 20 22 25 28 30 32 34 35 34 33 30 26 25 25 25 23 24 27 30 32 36 37 36 38 39 39 42 43 43 44
4 4 3 5 3 4 8 7 3 5 4 6 2 5 7 6 3 4 7 7 9 8 7 8 9 8 7 6 5 5 4 7 12 16 18 20 22 25 26 26 26 26 26 25 24 24 22 23 25 25 26 26 25 25 26 26 27 27 26 25 24 25 25 23 22 20 20 19 20 23 25 28 31 34 35 34 34 32 29 26 26 26 25 24 24 26 29 33 36 37 40 42 39 38 41 41 41
4 4 2 4 3 4 5 7 6 7 6 5 3 3 8 9 4 5 9 7 8 7 7 9 9 7 7 6 5 5 6 6 8 13 18 21 22 24 25 25 25 25 26 24 24 23 21 24 26 25 26 26 25 26 26 27 27 28 28 26 25 25 25 24 24 22 19 18 19 20 23 27 29 32 34 34 34 33 31 28 27 26 26 26 25 24 26 29 33 36 37 41 40 37 36 38 41
4 4 4 4 4 3 5 7 6 8 6 5 6 5 9 13 8 5 8 6 7 7 8 9 9 8 6 5 5 5 6 6 8 14 19 21 22 23 24 25 25 25 25 24 24 24 22 25 26 25 27 26 26 27 27 28 28 29 29 28 27 26 27 26 23 20 17 16 17 17 20 26 29 30 32 33 34 33 32 30 29 26 25 26 27 26 25 26 29 33 34 36 39 40 38 39 43
5 6 4 4 5 4 7 8 5 8 8 5 6 7 10 14 12 6 5 6 9 9 9 9 8 7 6 5 5 5 6 6 10 17 19 21 22 23 23 25 24 25 26 25 26 26 24 27 27 27 28 26 26 27 28 28 28 29 29 28 28 28 29 25 19 17 17 16 17 17 19 24 28 29 30 32 33 33 33 32 30 27 24 23 24 25 25 25 25 27 31 35 35 38 40 40 39
2 3 2 4 6 4 7 9 6 6 6 8 8 8 9 11 11 9 1 9 11 10 10 8 7 7 6 6 6 7 7 6 11 17 19 21 22 23 24 25 26 26 27 26 28 28 27 28 28 29 30 27 26 26 27 28 28 29 28 27 26 27 26 21 18 19 19 19 19 19 20 22 26 27 27 30 32 33 34 33 30 28 24 21 21 21 23 24 24 24 26 31 32 30 34 38 38
3 2 1 4 5 6 10 9 6 6 6 11 11 7 8 7 9 9 7 11 9 10 11 8 8 8 6 8 8 7 6 5 10 15 18 21 22 23 25 25 26 26 27 27 27 28 28 26 27 30 29 24 24 25 25 26 27 28 27 26 26 25 23 21 23 23 22 22 21 21 21 21 22 24 25 27 30 32 35 33 30 28 24 20 20 20 21 23 23 24 24 24 26 26 26 30 34
4 2 2 4 5 7 10 7 1 5 5 11 10 6 5 6 9 9 10 11 8 9 10 9 8 9 8 8 6 6 5 6 7 11 16 20 22 24 25 26 27 27 27 27 26 27 26 25 28 30 24 21 23 24 25 26 27 29 28 28 27 25 24 24 24 24 23 22 21 20 21 21 22 23 23 25 28 31 33 34 31 27 23 21 21 22 21 22 23 23 24 23 23 25 24 23 25
3 2 2 4 5 4 7 8 6 6 4 7 8 6 1 5 8 10 10 9 10 9 9 9 8 9 8 6 5 5 5 7 8 9 14 19 22 24 25 26 28 27 27 26 26 27 26 27 31 27 20 21 25 26 27 28 30 31 31 30 28 27 26 25 23 22 21 20 21 22 22 23 24 24 25 25 27 30 32 34 31 26 24 24 23 23 23 22 23 23 22 22 23 22 23 23 23
4 2 1 5 7 5 8 11 11 10 5 3 5 6 2 4 6 7 7 7 9 7 8 9 8 7 6 6 6 5 5 7 9 10 13 18 22 24 25 26 27 26 26 25 27 27 27 30 28 21 20 23 25 26 27 27 28 29 29 29 28 27 26 25 23 21 22 22 22 24 24 25 25 25 26 25 26 29 31 33 31 27 26 26 26 25 24 23 23 22 21 21 23 22 20 23 24
6 3 3 5 8 10 14 12 8 7 5 3 5 4 3 2 6 5 4 6 7 4 7 9 7 7 7 7 8 7 6 6 8 11 13 18 22 25 25 26 25 25 26 27 28 27 28 29 22 18 21 23 24 25 24 25 26 26 26 25 24 23 22 22 21 22 24 24 23 24 24 25 26 26 26 26 26 27 29 32 32 30 28 28 28 27 26 25 23 23 22 21 21 23 22 20 22
5 4 2 5 8 11 16 12 5 2 4 3 4 2 3 1 4 4 4 7 5 4 8 8 6 7 7 8 8 8 7 6 8 11 14 19 23 24 24 25 25 26 28 31 30 28 29 27 21 20 24 25 24 22 22 24 26 25 24 22 20 19 19 21 22 23 23 23 23 24 24 25 26 27 27 28 28 28 29 31 32 33 31 28 28 28 28 27 25 24 23 22 21 22 23 20 20
5 5 2 7 10 13 15 9 1 3 3 4 4 1 3 2 2 3 5 7 5 5 7 6 6 7 8 8 9 8 7 7 9 10 14 19 23 23 24 24 27 29 32 33 30 29 30 26 21 22 26 26 24 21 22 25 26 25 21 19 18 17 18 20 22 23 23 24 25 25 26 27 27 28 28 29 29 29 30 31 32 33 33 31 28 27 28 27 26 24 22 22 21 20 22 21 20
7 6 3 5 8 11 12 7 3 4 1 3 5 3 2 4 1 3 3 5 4 5 7 6 6 7 8 8 8 8 7 7 9 10 13 19 23 24 24 25 28 31 33 33 30 30 30 26 23 26 29 28 24 22 25 28 27 23 19 16 17 17 18 19 22 23 24 25 27 27 28 29 29 28 28 28 28 29 29 31 32 32 33 32 30 29 30 29 27 26 24 22 21 21 21 22 22
7 5 4 5 5 7 8 5 2 2 0 3 4 3 1 4 1 4 2 3 3 4 5 4 4 5 7 7 7 8 8 8 9 12 16 20 22 23 25 25 28 32 33 32 30 30 30 27 27 30 31 29 27 25 28 31 27 21 17 17 17 17 18 19 21 23 25 26 28 29 30 30 30 30 29 29 30 31 30 31 31 31 32 31 30 29 30 31 29 27 26 24 23 22 21 21 23
6 4 6 7 4 4 3 1 1 2 1 5 2 3 2 4 2 3 2 3 4 3 3 3 4 5 6 7 7 8 8 9 10 12 17 20 22 25 26 26 30 34 32 30 30 31 32 31 30 32 32 31 29 28 32 33 25 18 19 19 16 16 17 18 20 22 25 27 29 31 31 31 31 31 32 31 31 31 31 31 31 30 30 29 29 28 29 31 31 29 27 26 25 24 22 21 22
4 4 5 7 5 3 3 3 3 4 4 6 1 3 4 4 3 3 5 5 6 5 4 5 6 6 7 6 6 7 8 10 10 9 13 17 21 26 26 26 30 31 30 32 33 35 36 35 33 34 34 33 31 32 36 33 24 21 22 18 14 15 16 18 20 22 24 27 31 33 32 31 31 30 31 32 32 31 31 30 29 27 27 27 27 28 28 29 31 31 29 27 25 24 24 22 22
5 4 5 7 6 5 5 4 4 3 6 4 2 7 5 4 3 5 9 6 5 5 4 4 5 7 7 7 8 8 9 10 9 9 11 15 21 24 24 25 27 28 31 36 37 38 39 38 37 36 35 35 36 37 37 30 25 25 22 15 13 16 17 19 20 22 26 28 31 32 32 31 30 29 29 31 32 31 29 28 27 29 30 30 29 29 29 30 30 31 29 27 27 26 25 24 23
5 3 2 4 4 6 7 5 3 5 7 3 3 6 4 4 2 6 9 6 5 5 5 5 5 7 8 8 8 8 9 9 9 12 12 16 23 24 21 23 26 28 33 37 38 40 41 39 37 36 36 37 37 36 34 30 30 29 21 15 16 17 18 20 21 24 28 30 31 31 31 30 27 27 30 32 33 32 30 29 31 32 33 32 31 30 31 32 32 30 30 29 28 27 27 26 25
3 1 3 3 1 3 6 4 3 7 9 5 3 2 4 5 0 7 8 5 5 6 5 4 4 6 7 8 8 9 11 11 12 13 13 18 24 22 20 25 28 30 34 34 36 41 41 37 34 35 37 36 34 35 37 38 37 30 20 16 17 18 20 22 24 26 29 32 33 29 26 25 25 30 33 34 34 33 32 32 32 32 31 31 31 31 31 31 31 30 29 29 28 27 26 26 26
3 1 3 2 1 4 4 5 5 6 8 6 0 2 4 2 3 7 6 4 5 5 4 6 8 9 10 10 10 12 12 12 12 11 13 19 22 18 20 26 29 30 32 31 35 40 39 35 34 36 36 34 35 40 41 40 35 25 18 18 21 23 25 26 27 29 31 33 29 23 22 25 29 33 35 35 33 32 32 32 32 32 31 31 31 31 31 30 30 29 28 27 26 26 26 27 26
2 2 2 5 2 4 2 5 3 2 5 4 2 3 3 1 2 3 2 5 7 8 9 10 9 10 11 10 10 11 10 11 12 10 13 18 17 17 23 28 29 30 29 30 34 38 36 34 36 37 36 35 39 42 40 38 31 22 20 24 26 27 28 29 29 30 33 31 24 21 25 29 33 37 37 36 34 32 32 32 32 31 30 30 30 30 30 30 30 28 27 26 24 23 24 26 26
1 1 4 5 1 3 2 3 3 2 4 5 5 8 6 3 3 2 8 12 13 11 9 8 8 10 11 10 9 9 9 10 11 11 15 16 13 18 26 28 28 29 28 29 34 36 34 34 36 36 36 38 41 41 39 37 32 26 24 27 29 31 33 32 31 32 34 30 24 25 30 34 38 41 38 36 34 33 32 32 31 30 30 29 29 29 28 29 30 29 28 27 23 21 22 25 25
1 2 2 3 3 3 2 2 5 6 6 6 9 11 7 3 3 5 9 11 10 9 7 7 10 11 10 10 9 9 10 9 9 11 12 11 13 20 26 27 28 28 27 30 34 34 34 35 35 34 37 41 41 38 36 36 36 33 32 33 36 37 36 34 34 35 33 27 24 28 34 39 41 38 33 31 32 32 30 31 30 29 29 29 28 27 27 28 30 30 29 27 24 22 22 23 25
2 2 3 3 1 4 3 2 3 6 7 8 10 11 4 2 0 4 7 7 8 10 9 8 10 10 9 10 10 10 10 9 9 11 10 10 15 23 26 27 27 27 28 30 32 32 34 35 34 33 37 39 38 36 36 40 41 40 39 39 38 35 33 33 34 32 27 25 28 33 38 39 36 31 27 28 30 30 28 28 29 29 28 28 28 28 28 28 29 30 28 26 24 22 22 23 24
4 5 5 4 2 2 4 3 2 3 6 6 9 10 3 2 2 2 4 7 8 11 11 8 9 10 10 11 10 10 11 10 11 11 10 11 16 24 26 26 26 26 27 29 31 33 34 33 32 32 34 35 36 38 41 41 38 35 34 34 33 33 34 34 33 30 29 30 31 31 32 31 27 25 25 27 29 29 27 26 27 28 28 27 28 28 27 27 27 27 26 26 24 23 23 23 24
2 4 4 4 3 3 5 6 3 3 4 5 8 11 6 2 3 2 2 7 10 11 10 9 10 12 12 12 11 12 12 12 13 12 10 12 17 23 24 25 25 25 25 28 31 34 33 31 30 30 31 33 37 38 36 32 29 29 30 31 33 34 33 31 29 28 28 28 25 26 28 28 27 27 27 28 28 27 26 25 24 24 25 26 26 25 25 26 26 26 25 25 25 24 24 24 23
Wind_Direction
263 253 246 160 131 131 130 84 49 339 97 258 271 223 262 232 162 145 191 272 92 255 210 190 134 131 74 119 126 119 67 47 286 269 161 325 339 3 2 0 357 336 272 215 189 193 191 187 189 191 190 188 192 197 200 199 196 195 192 193 192 191 183 181 187 188 189 184 182 184 187 187 190 193 191 193 195 198 197 197 200 199 197 194 192 185 182 179 170 169 168 162 161 163 162 168 167
254 233 206 131 115 131 207 67 95 325 48 257 257 188 247 196 144 181 195 195 197 232 161 162 134 105 74 115 127 101 45 39 3 337 154 0 358 3 3 359 356 345 287 220 191 192 196 192 186 192 192 187 188 193 199 200 200 202 202 201 199 199 192 189 191 194 195 191 192 192 194 194 194 196 194 195 199 205 206 207 206 202 203 199 197 192 185 181 174 172 169 162 163 160 160 167 159
247 219 205 129 101 91 111 59 96 170 183 239 260 236 217 153 197 208 200 201 212 200 109 123 106 60 53 78 47 72 57 22 14 5 323 354 359 351 356 356 357 355 307 228 196 196 200 196 186 192 197 191 187 191 197 201 204 206 210 210 208 209 205 204 201 199 201 202 200 196 198 200 198 197 196 196 200 207 211 213 209 205 208 205 201 196 189 182 176 174 168 160 163 162 161 167 163
244 223 219 140 81 19 84 101 163 150 206 229 261 269 222 181 208 214 221 228 236 114 103 109 77 5 61 74 14 66 42 337 346 357 333 338 344 343 352 354 360 15 330 237 206 207 202 200 191 190 196 195 188 191 196 200 207 209 213 214 215 216 214 212 209 203 204 206 203 202 205 207 203 200 201 200 198 204 209 208 209 211 211 210 206 199 195 187 178 175 168 161 165 166 163 167 171
238 218 213 151 101 31 128 156 148 147 215 194 220 273 250 210 213 230 297 350 347 69 118 122 91 16 66 71 22 74 336 287 313 348 340 331 344 349 359 2 10 28 3 230 216 214 204 202 194 191 198 199 189 192 197 200 207 211 215 215 218 221 219 215 212 209 206 208 209 209 207 209 209 206 209 206 201 204 205 202 207 213 213 214 211 201 198 190 179 176 172 166 166 169 166 166 170
212 187 214 199 136 174 128 253 198 206 233 178 189 257 259 247 221 161 72 37 5 40 66 53 99 95 70 44 61 97 12 334 311 343 338 334 349 0 12 17 25 34 31 215 220 221 210 204 196 196 199 198 192 194 199 202 208 212 217 219 223 223 223 223 221 221 215 216 214 209 206 208 211 211 213 212 209 210 208 206 206 210 215 217 219 210 200 190 180 178 177 173 169 169 167 166 172
61 56 347 71 305 23 124 222 218 237 254 193 190 218 244 248 202 108 88 62 13 6 37 76 124 105 85 120 99 86 31 11 333 345 349 357 14 24 28 28 36 43 46 164 222 234 224 206 200 202 200 198 199 202 202 203 206 212 218 222 228 226 227 228 229 233 224 224 222 214 214 212 213 214 215 216 215 216 213 213 208 208 215 217 225 218 204 193 185 184 180 179 174 170 167 166 174
52 22 60 104 297 3 137 234 234 212 254 260 187 194 247 237 178 95 48 72 98 334 356 329 115 93 66 92 103 88 20 11 7 9 12 30 42 43 41 40 44 47 50 67 209 234 230 216 208 203 199 201 208 212 211 208 208 215 218 223 231 229 232 229 228 236 230 229 233 224 221 218 217 216 217 218 216 218 217 220 217 210 214 219 229 221 209 201 193 190 182 184 181 172 169 167 173
147 178 355 106 179 295 287 265 259 236 236 341 6 354 257 237 84 90 72 66 110 291 327 326 337 111 117 65 81 144 8 7 19 28 29 40 46 48 48 48 49 48 49 53 56 156 203 211 211 206 205 209 215 216 219 220 217 221 221 225 232 229 237 236 230 239 238 233 233 227 225 223 222 220 222 219 215 219 217 223 223 215 217 221 232 227 215 209 197 193 186 192 189 176 175 172 175
89 38 145 126 138 250 294 281 258 243 203 259 326 288 253 158 71 80 107 113 253 261 329 344 6 103 104 72 54 11 359 6 25 31 32 41 48 52 51 50 50 50 50 49 49 58 77 90 141 124 317 256 252 237 226 227 227 230 227 228 233 231 237 243 236 239 244 239 230 227 229 225 221 222 225 221 219 220 215 221 224 220 222 220 229 227 218 218 207 198 192 196 194 184 182 179 180
5 339 108 150 67 231 260 266 241 217 264 333 347 291 245 142 94 64 88 129 354 356 350 359 43 83 79 81 54 1 5 17 29 29 30 43 51 52 52 52 51 52 51 49 50 51 53 52 50 39 20 5 334 281 247 242 240 238 238 235 237 238 239 246 243 239 245 244 236 231 232 230 226 225 224 223 224 223 218 221 223 223 225 222 226 224 219 223 216 205 198 198 201 195 187 184 181
6 320 63 151 192 222 224 198 223 230 311 356 354 293 263 108 104 105 98 88 18 18 5 358 25 89 72 87 53 353 12 25 29 31 37 47 52 52 53 53 52 52 50 50 51 48 47 44 38 31 22 22 23 360 293 266 254 245 250 249 244 244 243 250 253 249 248 244 246 242 236 234 231 230 226 224 224 225 224 223 224 224 225 224 225 224 223 226 222 209 200 199 207 207 194 189 182
145 181 85 172 196 195 211 175 227 234 329 313 214 301 21 59 94 135 115 59 15 24 0 329 297 76 79 114 50 356 11 22 32 42 45 51 53 54 55 53 52 51 49 49 48 46 45 44 41 37 30 24 22 20 9 333 290 265 259 260 259 254 247 253 258 257 255 249 250 252 246 241 236 232 230 227 225 227 227 224 225 224 223 224 226 228 227 229 226 214 207 205 209 215 205 197 189
161 159 109 215 285 131 191 104 194 149 294 279 248 336 29 38 72 111 95 64 10 345 238 323 321 94 84 85 24 348 4 21 40 52 52 55 56 56 54 53 52 50 49 47 46 44 43 43 42 42 41 37 30 25 19 6 346 305 270 266 268 266 259 258 258 256 259 256 253 253 252 249 243 236 233 231 226 227 227 224 224 224 225 224 227 228 225 227 227 222 217 213 209 216 216 204 192
152 128 93 120 337 5 228 155 135 143 197 303 336 48 60 24 50 96 90 110 346 280 215 2 12 112 111 102 75 319 12 32 48 56 58 59 57 56 54 52 51 48 47 46 45 44 42 41 41 42 41 41 39 35 32 25 15 353 313 292 276 270 265 259 258 255 257 260 258 257 256 253 249 241 237 234 228 226 226 224 220 219 225 228 229 226 224 226 227 227 222 217 211 212 221 213 199
124 99 71 67 309 297 262 183 112 122 206 278 319 74 75 7 8 94 331 139 141 327 59 4 7 110 107 114 138 64 46 52 59 61 61 58 54 54 51 49 48 46 45 43 42 41 42 42 41 41 39 39 38 38 36 33 29 21 9 349 317 293 281 268 261 257 254 256 258 260 259 259 256 246 239 236 231 228 227 227 220 214 220 228 232 228 226 228 226 229 223 218 214 212 220 220 212
60 80 73 22 227 221 234 189 148 149 229 272 316 58 106 45 1 119 28 77 103 48 62 46 45 97 109 112 101 72 62 61 61 60 58 53 49 48 44 43 42 41 40 39 38 36 38 39 38 38 38 38 37 36 35 32 30 28 25 19 9 353 332 310 286 269 259 255 260 263 259 262 265 252 242 239 233 228 227 229 224 217 217 224 232 232 229 228 227 229 226 220 215 213 217 222 220
57 87 104 215 206 196 198 184 193 164 168 247 302 91 136 154 194 166 77 60 85 81 65 66 70 78 101 101 82 67 63 58 56 57 54 49 46 45 41 38 38 37 35 35 34 32 33 33 33 34 34 34 34 34 33 31 28 26 24 22 19 14 8 359 341 311 285 268 264 266 261 261 266 260 249 243 238 233 230 231 229 222 217 221 230 234 231 228 228 229 229 225 217 213 214 222 220
92 126 108 229 208 200 209 177 184 172 149 195 257 204 144 158 191 170 109 118 94 89 65 60 76 72 82 84 74 65 61 56 54 55 53 49 47 46 42 37 37 35 33 32 31 29 28 28 28 29 28 28 29 30 28 27 26 24 23 19 16 13 10 8 4 355 336 310 284 272 264 260 262 262 256 250 246 241 237 235 234 229 224 228 230 230 231 230 229 228 230 230 223 215 214 222 218
140 126 113 246 214 202 259 177 177 202 159 162 222 218 87 100 181 89 120 135 83 124 143 94 103 105 90 77 75 69 61 58 55 55 53 50 49 47 45 39 36 34 32 31 31 29 26 24 23 24 24 23 24 24 23 22 20 20 19 16 14 11 9 5 3 0 355 347 328 301 278 266 263 263 261 257 253 246 242 238 235 233 231 234 232 227 230 231 230 229 231 231 225 218 216 218 214
92 106 179 226 173 153 255 219 202 199 159 154 193 100 66 106 83 100 132 119 315 214 189 153 148 140 117 92 82 76 68 62 57 56 53 50 48 47 46 42 38 35 31 30 29 27 24 21 18 18 19 19 20 19 18 17 15 14 13 10 8 6 5 3 0 357 354 351 346 336 316 295 276 267 264 260 255 248 242 236 232 232 232 231 229 227 229 231 231 230 230 230 224 219 217 213 208
45 350 199 192 133 172 244 229 220 178 109 109 140 143 179 143 55 123 149 163 237 211 176 148 144 139 125 111 93 82 73 68 63 59 55 52 49 46 44 41 38 34 31 28 25 23 21 18 14 12 13 14 16 14 13 12 10 9 7 5 2 1 359 356 355 353 351 348 346 342 335 328 311 287 274 264 255 249 243 236 231 230 230 228 226 226 229 230 232 232 229 230 227 221 217 212 209
68 308 298 225 174 170 223 216 227 154 111 125 170 175 104 87 51 153 146 206 206 156 144 135 130 127 115 104 96 87 78 74 70 65 59 55 50 46 42 37 34 32 30 27 24 22 18 15 11 7 6 7 8 8 8 8 6 4 2 360 358 356 355 353 351 349 347 344 342 341 337 335 332 321 302 282 264 252 244 239 234 231 230 228 225 225 227 228 230 232 230 231 231 224 218 215 212
80 243 304 260 181 150 193 186 190 138 131 176 158 119 121 150 185 109 107 174 159 136 133 125 121 117 107 99 96 91 88 82 78 73 66 59 53 48 42 37 33 29 27 24 22 21 17 13 9 5 2 359 360 360 1 2 1 358 355 353 352 351 350 349 348 346 343 340 337 336 335 333 332 330 323 308 288 270 255 246 240 236 234 233 230 226 226 227 228 231 230 231 232 226 219 217 215
60 189 293 300 262 222 219 187 140 127 118 127 120 124 222 190 174 113 147 168 151 142 130 122 118 110 105 105 101 95 90 85 82 77 70 63 57 52 44 37 32 26 21 19 18 17 15 10 7 5 359 355 353 351 351 352 352 351 348 345 344 345 344 344 344 343 341 338 334 330 328 329 331 329 325 320 310 294 277 261 249 242 238 236 234 231 228 227 227 229 229 229 230 226 219 217 217
294 318 318 342 327 282 271 294 216 153 120 125 135 199 284 201 183 139 184 181 162 143 129 129 122 114 114 112 109 104 96 89 85 79 73 65 55 51 44 36 30 23 15 12 14 15 10 5 4 3 358 354 349 346 346 344 343 342 340 337 333 334 336 337 339 340 339 335 331 326 322 323 327 328 327 323 317 306 294 280 264 254 245 237 233 232 230 227 226 227 228 227 228 225 221 219 218
235 295 322 14 342 309 4 313 278 283 206 178 170 205 241 209 273 267 206 186 164 140 136 139 124 122 123 116 113 108 103 96 90 84 77 66 55 47 40 33 26 19 10 5 9 9 4 1 0 357 353 350 346 344 343 339 337 336 334 331 325 323 325 327 331 335 336 332 325 321 317 318 322 325 327 326 320 312 305 297 286 271 259 247 237 233 231 227 225 226 227 227 227 226 223 221 220
251 15 357 346 347 349 36 320 281 301 230 185 148 151 229 292 277 223 199 179 165 148 148 145 128 130 125 117 112 106 106 101 94 88 80 72 60 46 37 30 21 13 6 1 0 359 358 359 356 350 346 344 343 341 339 337 336 334 332 329 324 318 314 318 323 326 331 329 321 317 313 312 316 321 324 324 322 317 310 304 299 288 272 259 246 238 233 229 226 226 228 229 229 227 225 223 223
1 37 34 329 359 12 359 334 272 194 211 173 129 85 247 215 243 228 183 167 163 151 152 146 132 131 122 117 108 104 108 106 99 93 87 79 66 45 35 26 16 8 2 358 353 352 355 355 350 345 341 338 340 341 339 337 335 334 331 327 325 319 311 309 314 317 322 324 317 314 311 308 310 316 321 322 320 318 314 308 302 297 288 273 257 245 238 232 227 224 226 228 227 226 223 223 223
20 23 53 351 6 334 323 358 333 341 199 147 118 306 264 227 244 233 171 161 158 157 157 145 135 128 121 116 107 109 108 109 105 98 90 74 57 37 26 22 17 11 5 0 354 350 351 349 345 342 340 339 341 341 339 336 333 332 329 324 323 321 313 306 307 309 312 316 314 310 309 306 306 310 316 319 319 318 316 313 307 300 296 288 273 256 245 238 230 224 222 222 222 221 220 219 219
13 360 24 37 14 288 312 345 344 348 334 91 66 293 279 271 268 217 172 165 162 167 160 141 136 124 119 116 109 113 107 116 115 97 84 63 44 33 28 24 19 14 8 3 356 349 346 347 350 349 347 345 342 341 337 334 332 330 329 325 324 323 316 305 300 300 303 309 309 307 307 305 305 307 311 315 317 318 317 313 310 305 300 297 286 270 253 242 236 229 223 220 216 215 215 216 216
25 9 337 353 37 284 313 314 12 25 316 22 25 281 278 296 296 205 179 171 169 167 152 137 134 124 119 117 109 110 108 113 100 76 64 50 40 36 32 23 16 12 5 1 354 349 348 353 357 353 351 346 342 340 337 334 333 331 329 325 325 325 318 305 296 296 301 305 305 304 305 305 306 309 312 312 312 314 316 315 311 307 304 302 295 283 263 245 237 232 228 225 218 212 211 212 213
6 36 302 297 311 314 320 312 13 48 345 357 2 275 288 305 315 208 199 181 169 154 135 127 126 124 117 112 112 112 98 82 72 62 53 44 41 35 27 18 13 8 3 0 355 351 352 354 352 348 347 344 342 340 337 335 333 330 327 323 323 326 321 306 298 299 302 303 301 301 304 306 305 307 310 310 310 311 312 313 311 309 305 303 302 294 276 255 239 230 228 227 224 218 212 209 210
329 19 317 281 289 298 316 304 326 27 22 345 315 260 277 289 286 211 216 191 159 135 119 120 118 116 112 112 116 106 85 70 62 57 47 40 37 27 19 14 9 5 1 359 355 350 347 346 345 343 343 341 341 339 337 336 333 331 328 324 323 326 322 310 301 300 300 300 298 297 298 302 303 303 306 306 308 311 312 311 310 309 306 302 303 300 290 274 251 233 226 225 225 224 217 210 210
294 311 309 301 297 282 293 288 314 11 5 322 316 296 287 296 295 228 216 177 122 111 107 110 108 106 111 108 108 95 79 75 59 49 41 34 27 18 13 9 4 1 359 355 351 345 340 340 340 339 339 338 338 337 336 335 334 332 329 328 326 325 324 316 305 301 303 305 301 298 294 294 298 300 304 303 302 307 311 312 311 310 307 303 303 301 296 289 270 245 231 227 225 225 222 217 215
259 268 251 269 289 279 272 273 300 356 342 309 313 312 303 300 305 296 217 129 97 101 99 98 102 100 103 92 89 83 71 70 50 39 33 26 18 12 8 4 360 357 354 351 346 342 336 336 337 336 336 335 335 336 335 333 332 330 328 329 328 326 324 318 311 312 315 311 306 304 297 290 291 296 303 304 297 300 307 309 310 312 309 302 302 302 296 292 286 265 243 233 228 225 222 221 219
273 278 240 269 281 282 284 286 302 9 357 300 305 319 298 295 323 338 89 107 95 103 98 95 98 85 81 72 62 59 57 51 37 30 24 18 12 7 3 359 356 352 351 348 344 341 337 336 337 336 334 333 336 338 337 334 330 327 326 327 328 328 326 320 319 321 318 314 308 304 299 292 289 290 299 305 297 296 302 304 305 309 312 305 300 304 301 294 291 284 266 245 234 228 223 220 219
27 346 309 319 302 290 289 283 303 27 12 300 310 335 302 320 2 6 64 90 90 103 101 96 93 82 71 62 54 54 49 30 26 21 16 11 5 2 359 355 352 348 347 346 344 343 340 339 338 335 333 335 339 341 339 336 333 330 328 327 329 328 324 318 316 314 311 312 309 304 300 297 295 290 293 303 301 296 297 300 301 304 307 306 305 308 310 306 297 292 287 266 245 236 231 225 217
30 15 5 336 311 305 293 263 278 33 355 301 317 337 312 12 37 31 58 81 83 87 96 97 91 80 65 56 55 51 37 21 17 13 9 5 360 357 354 351 349 346 343 343 342 342 338 336 331 328 330 336 338 338 336 332 328 326 323 323 324 322 317 311 308 307 306 308 307 306 303 302 303 299 295 299 301 300 297 297 299 299 298 300 304 307 308 311 307 299 294 286 264 241 236 238 226
28 359 348 311 302 333 310 295 325 334 279 270 303 315 324 69 58 48 53 78 85 80 86 88 84 83 73 66 72 61 38 20 10 7 3 358 354 352 350 347 345 342 340 339 338 336 332 329 326 324 330 336 335 334 332 329 325 322 319 317 316 315 313 309 306 304 304 306 307 305 304 304 304 303 301 298 297 299 298 298 298 295 294 296 298 301 302 303 305 304 296 292 281 255 234 236 238
329 255 266 303 304 308 290 298 322 322 292 267 318 327 355 61 73 70 59 72 80 78 78 75 70 76 72 57 55 47 36 23 9 4 356 354 351 347 345 343 341 340 337 334 333 329 327 325 321 320 328 331 331 330 329 327 325 323 320 318 315 313 313 311 308 305 305 305 305 305 305 305 303 301 301 298 295 295 296 296 295 292 291 294 294 294 295 296 296 297 295 291 285 274 250 231 231
328 258 232 289 306 308 299 307 335 338 315 338 22 9 324 39 93 93 78 79 76 63 72 75 67 57 49 34 25 15 21 24 10 0 353 351 347 342 340 339 339 338 335 333 329 325 324 322 315 316 325 328 327 326 327 325 321 318 316 314 312 311 310 308 308 306 305 304 303 305 306 305 303 300 299 298 295 293 293 293 293 292 290 289 290 290 289 290 289 288 290 289 283 281 272 245 227
328 254 237 301 313 311 304 312 347 328 277 309 40 89 255 297 95 109 111 95 77 64 70 73 62 45 34 22 9 3 10 11 4 358 351 347 343 338 336 337 340 338 336 333 327 325 326 321 312 318 326 325 323 323 326 325 319 315 313 310 309 309 307 308 312 311 309 307 307 306 305 304 303 300 297 295 293 291 290 290 290 291 291 287 286 286 285 284 283 283 284 282 280 280 276 262 237
288 263 355 325 318 311 301 307 284 236 266 313 3 94 244 297 73 151 133 97 79 75 68 61 55 39 24 15 3 360 3 360 358 352 346 343 339 336 335 337 340 338 336 333 327 326 327 318 312 323 327 322 320 323 325 324 319 313 309 309 312 315 315 316 320 321 319 317 315 312 309 307 304 301 296 293 291 289 287 287 288 289 288 287 286 284 283 283 282 282 280 276 273 272 268 267 255
268 271 308 292 301 300 292 297 261 253 298 312 328 2 292 303 31 180 153 97 86 69 55 42 40 30 15 8 358 358 358 352 350 343 339 339 336 336 337 338 340 339 338 333 327 328 327 320 321 329 329 323 319 321 323 323 315 304 300 309 316 319 322 323 323 324 324 323 319 316 314 309 305 302 298 295 293 291 289 287 287 286 284 284 285 287 286 285 284 280 277 273 267 265 262 262 262
273 285 304 288 290 283 280 286 266 300 3 252 298 34 4 300 204 178 181 105 94 62 56 40 27 23 9 1 356 357 354 347 344 338 336 336 336 336 335 337 341 341 337 332 331 336 336 331 329 330 327 322 318 317 321 320 309 298 304 315 318 319 323 324 324 323 323 323 320 317 314 309 305 302 299 298 296 294 291 287 285 283 281 280 281 285 286 285 283 281 278 273 266 263 260 256 256
305 353 337 318 298 266 284 324 68 38 305 238 224 84 17 306 247 165 151 122 118 88 54 21 9 14 2 357 359 356 350 343 338 335 335 335 335 336 336 341 344 341 338 340 344 345 341 334 329 327 324 321 316 316 321 316 300 295 309 312 310 315 319 320 320 320 320 321 317 314 311 306 303 301 299 298 296 294 291 286 284 282 280 280 281 282 283 281 280 281 280 276 269 263 259 254 250
2 23 342 336 326 315 357 13 37 23 295 253 216 20 345 286 251 134 128 131 123 108 50 12 1 3 357 351 352 349 346 341 335 334 334 334 337 338 340 343 343 343 347 349 346 341 337 332 329 327 324 322 319 318 319 310 293 297 305 299 300 309 314 317 317 317 318 317 313 309 306 303 301 299 299 297 296 294 290 285 284 285 285 285 285 283 282 280 279 278 277 274 271 266 260 252 246
18 8 6 4 347 342 343 332 342 320 276 260 343 354 332 248 233 144 143 142 126 121 86 33 3 358 354 347 348 348 344 338 336 339 338 341 341 338 339 343 346 350 350 345 340 338 335 330 328 326 324 323 322 319 317 308 299 306 301 287 300 310 311 315 315 316 316 314 311 307 302 301 299 299 300 299 296 293 287 284 285 287 288 287 285 283 281 281 280 278 275 272 269 267 262 254 245
355 350 50 36 0 336 317 304 312 287 270 269 7 353 307 268 285 140 147 144 118 99 65 42 13 1 354 345 343 341 336 338 346 348 346 344 338 332 338 348 350 348 344 340 338 336 331 327 327 326 324 323 322 321 320 313 308 305 294 287 305 310 310 314 315 315 317 314 309 303 298 297 297 301 303 299 296 291 284 284 286 286 285 283 281 279 278 277 277 274 272 272 270 268 263 255 247
305 214 127 81 42 295 287 259 256 289 291 300 17 15 259 269 280 131 136 124 94 69 47 32 11 2 352 341 342 343 345 354 354 346 343 335 328 331 346 349 344 340 338 337 335 332 327 324 326 326 323 323 325 326 323 317 310 300 291 297 308 311 311 313 314 314 316 314 308 300 295 297 301 304 304 299 293 287 282 282 284 282 281 281 279 277 275 273 271 269 269 270 272 272 265 255 248
277 142 98 17 260 212 242 238 230 272 291 291 326 198 241 250 133 135 127 107 87 65 32 14 7 2 353 347 351 353 353 353 344 337 335 327 324 336 348 341 336 334 333 332 332 330 325 322 325 325 322 323 326 325 322 319 314 304 301 309 310 310 311 311 312 313 314 312 304 297 298 302 306 306 303 299 293 285 280 279 280 280 279 280 278 275 273 271 268 266 266 268 272 274 268 257 250
316 38 308 286 234 161 229 280 267 289 288 275 248 268 291 24 168 168 71 20 21 22 14 8 360 354 351 350 353 350 346 340 334 331 326 320 323 338 339 334 331 329 327 328 330 328 323 322 325 323 321 322 324 321 318 317 315 307 305 309 308 309 311 310 310 311 313 310 298 294 302 305 306 305 301 297 292 285 279 277 278 278 278 279 279 276 273 270 267 262 263 265 269 273 269 258 249
50 354 284 293 341 109 110 289 301 309 275 271 286 290 295 293 265 327 8 359 357 0 359 349 343 352 352 346 342 335 330 328 325 323 319 314 320 330 330 328 325 323 323 326 327 326 323 324 324 321 321 321 320 318 316 314 311 306 307 311 311 311 310 308 308 309 309 303 293 296 304 305 304 301 297 293 291 286 278 274 275 276 278 279 278 277 274 270 264 260 262 262 264 269 266 258 252
148 213 305 359 331 317 355 304 298 298 283 285 292 290 283 252 273 353 357 345 338 336 339 341 345 352 345 332 326 320 322 322 318 319 315 307 314 322 324 324 322 321 322 324 325 325 325 324 321 319 320 319 315 314 315 314 311 309 310 312 311 310 309 308 308 307 303 296 296 303 305 304 301 296 292 292 295 294 282 274 274 276 278 278 276 274 272 267 263 261 261 259 259 262 260 258 256
343 352 9 28 274 278 298 291 288 291 288 292 296 295 293 165 178 356 338 317 316 330 344 350 343 340 329 323 321 318 320 318 315 316 307 298 309 318 322 322 320 320 321 324 326 326 326 322 319 319 319 318 315 314 315 314 309 307 308 310 311 311 311 311 309 306 303 303 306 307 305 301 296 292 294 299 303 304 294 282 277 277 278 277 274 271 267 265 263 260 258 256 256 257 255 256 256
347 356 345 344 329 285 290 276 244 288 292 299 301 298 298 135 135 12 321 304 326 346 351 345 333 328 322 319 317 316 316 313 314 314 304 299 309 317 321 320 319 319 321 326 328 327 324 319 318 321 320 320 318 315 314 313 310 310 313 314 315 316 314 310 305 302 305 307 307 306 305 302 299 301 305 306 305 305 303 295 285 279 278 278 276 272 267 263 259 256 255 254 255 254 252 253 254
334 336 321 325 309 306 319 300 283 297 290 290 294 294 299 137 142 111 345 333 350 357 347 335 327 322 319 317 313 311 311 312 314 311 303 302 311 317 319 319 319 320 324 328 329 327 323 319 321 324 322 320 318 314 313 315 319 321 322 319 316 315 312 308 304 303 306 308 307 308 309 307 307 307 308 307 303 303 306 305 296 286 281 280 276 272 267 260 255 253 252 250 251 250 249 249 248
Height
794 795 794 795 795 796 797 798 813 817 818 828 823 822 814 803 805 806 808 807 805 801 795 795 795 797 800 805 814 819 819 820 823 821 822 819 813 812 810 808 807 805 805 804 804 806 806 808 808 809 810 810 811 812 813 813 814 813 814 813 813 814 813 813 813 814 814 814 815 816 817 817 818 819 820 821 822 823 823 823 824 824 824 824 824 824 825 825 826 826 827 828 829 829 830 830 831
793 794 794 795 794 797 800 800 819 826 824 831 823 818 811 804 808 806 806 805 801 795 793 795 796 797 799 804 807 810 818 821 820 818 816 815 813 812 810 809 808 806 806 805 805 805 806 807 808 809 809 810 811 812 813 813 814 814 814 814 814 814 814 814 814 814 814 815 815 816 817 818 818 819 820 820 822 823 823 824 824 824 824 824 824 824 825 825 826 827 827 828 829 830 830 831 831
793 794 794 795 796 797 801 805 821 830 829 831 822 813 809 807 807 803 799 797 794 792 793 795 795 799 799 803 807 810 819 821 818 818 816 814 813 812 811 810 808 807 805 805 805 805 806 806 808 809 809 810 810 812 813 813 814 814 814 814 814 814 814 814 814 815 815 815 816 817 817 818 818 818 819 820 821 822 823 824 824 824 824 824 824 824 825 825 826 827 827 828 829 830 831 832 832
792 793 794 795 798 801 806 813 820 826 829 828 820 810 807 806 802 798 796 795 795 794 794 795 799 803 802 809 813 815 821 822 821 821 819 817 816 814 812 810 808 807 805 805 805 805 806 806 807 808 809 810 810 811 812 813 813 814 814 814 814 814 814 814 814 814 815 815 816 817 817 818 818 819 819 820 820 821 822 823 824 825 825 824 824 824 824 824 825 827 827 828 829 831 831 832 832
792 793 794 794 801 804 807 815 818 821 823 821 817 809 804 802 798 798 798 798 797 796 795 795 803 806 807 814 817 821 827 825 822 822 821 818 816 815 812 811 809 806 805 805 805 805 806 806 807 808 809 809 810 811 811 812 813 813 814 814 814 814 814 814 814 814 814 815 815 816 817 818 818 819 819 820 820 821 821 822 823 824 825 824 824 824 824 824 825 826 827 828 829 831 832 833 833
792 793 794 794 798 799 807 817 819 820 815 812 812 805 801 800 799 800 801 800 798 798 797 798 805 809 815 821 821 827 830 827 824 824 823 819 816 815 812 810 807 806 805 805 806 806 806 807 807 808 808 809 809 810 811 812 812 813 813 814 814 814 814 814 814 814 814 814 815 816 816 817 818 819 819 820 820 821 821 821 822 823 824 824 824 823 823 824 825 826 827 828 829 831 831 833 834
792 794 796 798 799 800 813 819 817 819 810 807 807 801 800 800 800 802 801 801 800 799 798 804 806 807 818 823 823 827 828 828 827 825 825 821 817 814 811 808 807 806 805 805 806 807 807 807 807 808 808 809 809 810 811 811 812 813 813 814 814 814 815 814 814 814 814 815 815 815 816 817 817 818 819 819 820 821 821 821 822 822 823 823 824 823 823 824 824 825 826 827 828 830 831 833 834
792 796 797 802 807 808 815 816 816 817 807 803 804 801 801 800 800 802 804 804 805 803 801 805 804 804 816 819 823 828 827 827 827 825 824 820 816 814 811 808 807 806 805 805 806 807 808 808 808 808 808 809 810 810 811 811 812 812 813 814 814 815 815 815 815 814 815 815 815 815 816 816 817 817 818 819 819 821 821 822 822 822 823 823 823 823 823 823 824 825 825 827 827 829 831 832 834
792 796 799 804 811 813 815 816 816 812 805 804 803 803 801 801 801 802 806 806 807 806 803 806 805 806 815 819 824 828 826 827 826 824 822 818 817 814 811 810 809 808 806 806 806 806 808 809 808 808 809 809 809 810 811 811 812 812 813 813 814 815 815 815 815 815 814 814 815 815 815 816 817 817 818 818 819 820 821 821 822 822 823 823 823 822 823 823 824 825 825 826 827 829 830 831 833
793 796 800 806 813 817 818 818 816 809 806 805 803 803 800 801 802 804 806 806 809 807 806 809 808 810 817 823 827 828 828 826 824 821 820 819 817 815 813 812 811 809 808 807 807 807 807 808 808 808 809 809 810 810 810 811 812 812 813 813 814 815 815 815 815 815 814 814 815 815 815 815 816 817 818 818 819 819 820 821 821 822 823 823 823 822 823 823 823 825 825 826 826 828 829 830 831
797 798 799 809 815 818 818 817 815 810 807 806 805 802 800 802 803 807 808 806 811 810 809 810 809 815 822 827 831 831 830 826 823 822 822 821 818 816 815 814 812 811 810 809 809 808 808 808 808 808 807 808 809 809 810 810 811 812 812 813 813 814 815 815 815 815 815 815 815 815 815 815 815 816 817 818 818 819 819 820 821 822 822 823 823 822 823 823 823 824 825 826 826 827 828 829 830
801 802 802 812 816 815 816 815 814 811 810 809 806 802 800 804 803 808 811 810 813 813 814 815 813 816 822 829 833 831 828 825 824 825 824 821 819 818 816 815 814 813 812 811 810 809 809 809 808 808 808 808 808 809 810 810 811 812 812 813 813 814 814 814 815 815 814 814 814 815 815 815 815 815 816 817 817 818 819 819 820 821 822 822 822 822 823 822 822 823 824 826 826 827 827 829 829
800 803 806 813 815 813 813 814 815 814 813 809 807 803 802 806 807 810 814 815 817 815 816 818 816 816 822 829 832 830 827 826 826 825 824 822 820 819 817 816 815 814 814 813 811 811 811 810 810 810 809 808 809 809 809 810 811 812 812 813 813 813 814 814 814 814 814 814 814 814 815 815 815 815 815 815 816 817 818 819 819 820 821 821 822 822 822 822 822 823 823 825 826 826 827 828 829
796 799 804 812 815 813 811 815 816 816 813 808 806 805 806 811 814 816 814 816 821 819 818 819 816 816 822 828 831 832 829 828 827 826 824 823 821 819 818 817 817 816 815 814 813 813 813 813 812 811 810 810 810 810 810 810 810 811 812 812 813 813 813 814 814 814 814 814 814 814 814 814 814 814 814 814 815 816 817 818 818 819 820 820 821 821 822 822 822 822 823 824 825 826 826 827 828
793 797 802 809 813 813 811 812 814 814 812 808 807 809 812 816 816 817 815 816 822 821 818 818 816 816 822 827 832 833 830 829 827 826 825 822 821 819 819 818 817 817 817 817 816 815 815 814 814 813 812 812 812 812 812 811 810 810 810 811 812 813 813 813 813 814 814 813 813 813 813 813 814 813 813 813 814 815 815 816 817 818 819 820 820 820 821 821 821 822 822 823 824 826 826 826 828
793 796 804 811 814 816 811 811 815 816 812 809 811 811 813 819 817 817 818 816 820 821 818 818 818 819 825 828 832 832 830 829 827 826 823 822 821 820 819 819 819 818 818 818 818 818 817 816 815 814 814 814 814 813 813 812 812 811 811 811 811 811 812 812 812 813 813 813 813 813 813 812 812 812 813 813 813 814 814 815 815 816 817 818 819 819 820 820 821 821 821 822 823 824 825 826 827
792 796 807 813 816 816 810 811 814 813 811 809 811 810 812 820 820 818 819 817 819 822 821 821 822 823 826 829 830 830 829 829 827 824 822 822 822 821 820 820 820 819 819 819 820 820 819 818 817 816 815 815 814 813 813 813 813 812 812 811 810 810 810 810 810 811 811 812 812 812 812 812 811 812 812 812 812 813 813 813 813 814 816 817 818 818 819 819 820 820 820 821 822 823 824 825 825
793 802 810 813 814 812 807 808 809 808 810 809 808 809 811 816 818 817 818 820 822 823 824 824 825 826 828 829 830 830 829 828 826 824 823 824 823 823 823 823 822 822 822 821 821 821 820 819 819 818 817 816 815 814 813 813 813 812 811 811 811 811 810 810 809 810 810 810 811 811 811 811 811 811 811 811 811 812 812 812 812 813 814 815 816 817 817 818 818 819 819 819 820 821 823 824 824
796 805 810 810 810 808 805 805 806 806 808 809 809 810 809 810 814 814 815 824 825 824 827 828 828 830 830 830 831 830 830 828 827 826 825 826 826 826 826 826 825 825 824 824 823 822 821 820 820 818 818 817 816 815 814 814 813 812 812 811 811 811 810 810 809 809 809 809 809 810 810 810 810 810 810 810 810 810 811 811 811 811 812 813 815 815 815 816 817 817 817 818 819 821 821 822 822
797 804 808 808 807 807 806 805 805 804 806 807 808 809 809 811 815 813 816 825 826 824 828 829 830 832 831 832 832 831 831 830 829 828 828 828 829 829 829 828 828 828 827 827 826 824 823 822 821 820 819 818 816 815 815 814 814 814 813 813 812 811 810 810 810 809 809 809 808 808 808 808 809 809 808 809 809 809 809 809 809 809 810 811 813 813 813 814 815 816 816 817 818 819 819 818 820
799 802 804 805 806 806 805 805 804 805 806 806 808 809 810 813 815 815 817 820 822 824 825 826 829 831 831 832 832 833 832 832 832 831 831 831 831 831 831 831 831 831 830 828 827 826 825 824 823 822 820 819 817 816 816 815 815 814 813 813 812 811 811 810 810 810 809 809 808 808 807 806 807 807 807 807 807 807 807 807 807 808 808 809 811 811 811 812 813 814 815 815 816 816 817 816 817
800 803 803 803 805 804 804 805 804 805 807 807 809 809 809 812 814 817 816 813 816 822 824 825 827 829 830 832 833 833 834 834 834 834 834 834 833 833 833 833 833 832 831 829 829 828 827 826 825 824 823 821 820 819 817 816 815 814 813 813 812 811 810 810 810 809 809 809 808 808 806 805 805 805 805 805 805 805 805 805 805 805 806 806 808 808 809 810 811 812 813 813 813 814 815 814 815
801 805 804 803 803 801 803 805 804 805 806 806 807 807 810 812 813 818 818 814 818 821 823 825 827 829 830 831 833 834 835 835 836 836 836 836 836 835 835 834 834 833 833 832 831 830 829 828 827 826 825 823 822 821 819 818 816 815 814 813 812 811 810 810 810 809 809 809 808 807 807 805 804 804 804 804 803 802 802 802 803 803 803 804 805 806 807 808 809 810 811 811 811 812 812 812 813
801 805 804 804 803 801 802 803 803 804 803 804 807 807 809 809 811 817 818 819 821 822 823 825 827 828 829 831 833 834 835 836 837 838 838 838 838 838 837 836 836 835 834 834 833 832 831 830 829 827 826 825 823 822 820 819 818 816 814 813 811 810 810 809 809 809 809 808 808 807 806 806 805 804 803 802 802 801 800 800 800 800 800 801 802 803 804 805 806 807 808 809 809 809 810 810 811
803 805 804 804 803 801 802 803 803 803 804 806 807 807 809 811 812 815 818 820 821 822 823 825 827 828 830 831 833 834 836 837 838 839 839 840 840 839 839 838 838 836 835 835 834 833 832 831 830 829 827 826 825 823 822 820 819 817 815 813 812 810 809 808 808 808 808 808 808 807 806 805 804 804 803 801 801 799 799 799 798 797 796 797 798 798 800 801 803 804 805 806 806 807 807 808 809
807 806 805 804 802 803 804 804 803 803 805 807 807 807 812 815 814 813 817 820 819 821 823 824 826 828 830 832 833 835 836 838 838 839 840 841 841 840 840 839 838 837 836 836 835 834 833 833 831 830 829 827 826 824 823 821 819 818 816 814 812 811 809 808 807 806 806 807 807 807 806 804 803 803 802 801 800 798 797 797 796 795 794 793 793 793 795 797 798 800 802 802 803 803 803 804 805
807 806 804 803 804 805 805 804 803 804 805 805 805 808 812 816 815 811 815 818 818 821 823 825 826 828 831 832 834 835 836 838 839 839 840 840 841 841 840 840 839 838 838 836 835 835 834 833 832 831 830 828 826 825 823 822 820 818 816 815 812 811 809 807 806 805 805 805 806 806 805 804 803 802 801 800 799 798 796 795 794 793 792 791 790 790 790 792 794 796 797 798 799 800 800 801 802
805 804 803 804 804 803 805 805 803 804 803 803 806 811 815 818 814 806 809 815 817 819 823 825 827 829 831 832 834 836 837 838 840 840 840 840 841 841 841 841 840 839 839 837 836 836 834 833 832 831 829 828 826 825 823 822 820 818 816 814 812 810 808 806 805 803 803 803 804 804 804 804 802 801 800 799 798 797 795 793 792 791 790 789 789 789 787 787 789 791 793 795 796 797 798 799 799
803 804 804 804 805 803 804 806 804 803 802 802 806 810 813 814 808 802 807 813 816 819 822 826 828 830 831 833 836 837 838 839 840 840 840 841 841 842 842 841 841 841 840 839 838 837 836 835 833 831 829 828 827 825 823 822 820 818 816 814 811 809 807 805 803 802 801 801 802 803 803 802 801 800 799 798 796 795 793 792 790 789 788 787 787 787 785 785 785 786 788 790 792 793 794 795 796
804 810 810 809 811 804 802 806 806 804 803 802 805 807 803 802 800 803 809 811 815 819 822 826 828 831 833 834 837 838 839 839 840 841 840 842 842 842 842 842 842 842 841 840 839 838 837 836 834 831 830 828 827 825 824 822 819 817 814 812 810 808 806 804 802 800 799 799 800 801 802 801 800 799 798 797 795 793 792 790 788 787 786 785 784 783 783 783 783 782 783 783 785 787 789 790 792
811 814 817 825 823 806 803 810 809 806 804 802 806 808 800 795 798 805 811 810 813 816 821 827 829 832 834 836 838 838 839 839 839 841 841 842 843 843 843 843 843 842 841 840 839 838 836 835 833 831 829 828 827 825 823 821 818 816 813 810 808 806 805 803 801 798 796 796 797 799 800 800 799 797 796 795 794 792 790 788 787 786 784 784 782 781 780 780 780 780 780 779 779 781 783 786 787
823 819 820 832 830 817 812 810 810 809 806 804 807 808 801 797 801 807 810 810 811 814 820 827 830 833 835 836 838 839 840 840 840 842 843 843 843 843 843 842 842 841 840 839 838 837 835 834 832 830 828 827 825 823 822 820 817 815 812 808 805 804 803 802 800 797 794 793 794 796 798 798 797 796 794 793 792 790 789 787 786 784 783 782 780 779 778 776 776 777 778 778 777 777 778 780 782
834 832 828 829 828 827 819 808 811 814 810 808 810 810 804 800 804 808 810 810 811 815 822 828 831 834 836 837 839 839 840 841 842 843 843 843 843 843 842 841 841 840 839 838 836 835 833 831 829 828 826 824 822 821 819 817 816 814 811 807 803 801 800 800 799 796 792 791 791 793 795 796 795 794 792 791 789 788 787 785 784 783 782 780 778 777 775 774 773 773 773 775 776 775 773 774 777
836 839 837 833 832 833 826 813 811 815 814 813 813 814 809 802 804 808 808 810 812 817 823 829 832 835 837 838 839 840 841 842 844 844 843 843 842 842 841 840 840 839 838 836 835 833 831 829 827 825 823 821 819 817 816 815 813 812 809 805 801 798 798 798 798 794 790 788 789 791 792 793 792 791 789 788 786 785 784 783 782 781 780 778 776 775 773 772 771 770 769 770 772 773 772 772 773
840 843 841 837 837 834 830 820 813 814 817 816 813 813 810 803 802 805 807 811 814 820 826 831 834 836 838 839 840 841 842 843 845 844 844 843 842 841 840 840 838 837 836 834 833 832 829 827 824 823 820 818 817 815 814 812 811 809 807 803 798 795 795 796 795 792 788 786 787 788 789 790 789 788 787 785 784 782 781 780 779 779 778 777 775 773 771 770 769 768 767 767 767 768 769 769 770
842 847 845 841 839 835 829 821 817 818 816 812 812 814 812 805 801 803 808 812 818 823 829 833 836 838 840 840 841 842 843 845 845 844 843 842 841 841 839 838 837 835 834 832 831 829 827 824 822 820 818 816 815 813 811 810 808 807 805 801 796 793 792 793 792 790 787 786 786 786 786 787 786 785 784 783 781 779 778 777 776 776 775 774 773 771 770 768 768 766 765 765 764 764 765 766 768
844 844 843 839 838 835 827 820 819 821 817 810 810 817 814 807 807 810 810 814 821 827 832 835 838 840 841 842 843 843 844 845 845 843 842 842 840 840 838 837 835 833 832 830 829 827 825 823 820 818 817 815 814 812 810 809 807 805 802 799 795 792 791 790 790 789 787 785 784 784 784 784 783 782 781 780 779 777 775 775 774 773 773 772 771 770 768 767 766 765 764 763 762 762 762 762 764
843 841 838 834 833 831 824 821 820 821 822 813 809 816 811 811 820 819 815 819 826 830 834 838 840 842 843 844 845 845 846 845 844 843 842 841 840 839 838 836 834 832 830 829 827 826 824 822 820 818 817 815 813 811 810 809 807 805 801 798 794 792 790 789 789 787 786 784 782 782 781 781 780 779 778 777 776 774 772 771 771 770 770 769 769 768 767 766 764 764 763 761 760 760 760 760 761
842 842 838 835 834 830 820 817 818 823 826 814 809 816 815 822 831 827 824 828 832 834 836 839 841 843 846 846 847 847 846 845 844 843 842 842 841 839 837 835 833 831 829 828 826 825 823 822 820 818 815 813 811 810 809 807 806 804 801 797 793 791 789 788 787 785 784 782 780 780 779 778 778 776 775 774 773 771 770 768 768 767 767 766 766 765 765 764 763 762 761 760 759 758 757 759 759
842 842 839 837 838 839 828 817 817 824 825 816 813 815 817 828 833 832 835 834 836 839 838 841 843 845 848 847 847 847 846 846 845 844 843 842 841 838 837 834 832 831 829 827 826 824 822 820 818 816 814 812 810 808 807 806 804 801 798 795 792 789 787 786 785 783 781 780 778 777 777 776 775 774 773 772 770 768 767 765 764 764 763 763 763 762 762 762 762 761 760 759 759 756 754 755 757
842 841 839 839 839 842 837 826 824 824 818 817 817 811 813 830 837 837 840 838 839 841 840 844 846 846 848 846 846 846 846 846 845 844 843 842 840 838 837 835 833 832 829 827 825 823 821 819 816 814 812 810 809 807 805 804 801 799 796 793 790 787 785 783 781 780 778 776 775 774 773 772 772 771 770 769 768 765 764 763 762 761 760 760 759 759 759 759 759 759 759 758 757 756 753 752 753
841 838 838 841 839 838 834 831 833 829 817 814 817 815 817 831 840 840 842 841 841 842 842 846 847 847 847 846 846 846 845 846 846 845 843 842 841 839 837 835 834 832 829 827 825 822 820 817 815 813 811 809 807 806 804 802 800 797 795 792 789 786 783 781 779 778 775 773 772 770 770 770 769 768 767 766 765 763 761 760 759 758 757 756 756 756 755 756 756 756 757 756 755 755 753 751 750
840 836 838 840 838 836 832 832 838 834 823 817 818 823 823 824 833 842 844 844 844 844 845 846 847 848 847 848 847 846 846 846 845 845 844 843 841 839 837 834 833 831 828 826 823 821 818 816 814 811 810 807 805 804 802 801 798 796 793 790 788 785 782 780 778 776 774 772 770 768 767 767 766 766 764 763 762 760 758 757 756 755 753 753 753 752 752 752 753 753 753 754 753 753 752 751 748
837 832 838 837 834 834 831 834 840 835 827 823 821 823 822 818 830 845 844 843 846 845 847 848 848 849 849 849 848 847 847 846 846 845 843 843 841 838 836 834 832 830 826 824 821 819 817 814 813 810 809 806 803 802 800 798 796 793 791 788 786 783 781 778 776 774 772 770 768 766 765 764 763 763 761 760 759 757 756 754 753 752 750 750 749 749 748 749 749 749 750 750 750 750 750 750 748
833 832 838 837 835 833 829 833 838 835 830 825 823 823 823 822 832 846 843 841 847 847 850 851 849 851 850 850 850 848 848 847 847 846 843 842 840 838 836 833 832 829 825 823 819 818 815 813 812 810 808 805 802 800 798 796 794 791 788 785 783 781 779 776 774 772 770 769 767 765 763 761 760 759 758 757 755 754 753 751 749 748 747 746 746 745 745 745 745 745 746 747 747 747 747 748 747
835 836 837 834 836 831 829 834 833 831 829 824 827 829 832 834 834 841 842 842 849 850 851 852 850 852 852 851 851 849 848 848 846 846 844 842 840 838 836 833 830 827 824 822 819 818 816 813 812 809 806 803 801 798 795 793 791 788 785 783 780 778 776 774 772 770 768 767 765 763 761 759 757 756 754 753 752 751 749 748 746 745 744 743 742 742 741 741 741 742 742 743 743 743 744 744 744
837 836 836 831 832 829 830 835 831 831 827 823 829 830 835 841 833 834 842 845 851 853 853 854 852 852 852 851 851 849 849 848 846 845 843 841 840 837 834 830 827 825 822 821 820 818 816 813 810 807 804 801 798 796 793 790 787 784 782 780 778 776 774 772 770 768 766 765 763 760 759 756 754 752 751 749 748 747 746 744 743 741 741 740 739 739 738 738 738 738 739 739 740 740 740 741 741
839 838 840 833 832 831 829 831 832 836 829 822 828 828 832 838 831 836 849 850 851 854 854 855 853 852 852 851 850 850 849 847 845 844 842 840 837 832 829 826 824 823 822 821 820 818 815 812 809 805 802 799 796 794 790 787 784 781 779 777 775 773 772 770 768 766 764 763 760 758 755 753 751 749 747 746 744 744 742 740 739 738 737 737 736 735 735 735 735 735 735 735 736 737 737 737 738
840 841 845 846 849 849 843 841 842 842 831 822 825 828 831 830 824 836 851 851 851 852 852 853 853 852 851 850 849 848 847 846 844 841 839 835 832 828 826 825 823 822 821 820 818 816 813 810 807 803 799 797 794 791 788 784 781 779 777 775 773 771 770 768 766 764 762 760 758 754 752 749 747 746 745 743 741 740 739 737 735 734 734 733 733 733 732 731 731 731 731 731 732 733 733 734 734
844 844 846 854 863 868 866 860 856 848 833 822 824 832 834 827 823 834 845 847 848 849 849 851 851 851 850 849 848 847 845 843 840 837 834 832 830 828 826 825 823 822 820 818 816 813 810 807 804 800 797 795 792 788 785 782 779 776 774 772 770 769 767 765 763 761 759 757 754 751 749 746 744 743 742 740 738 737 735 733 732 731 730 730 729 729 728 728 728 728 728 728 728 728 729 730 730
847 848 848 853 860 869 872 863 856 849 838 830 831 835 831 824 827 836 840 843 845 846 848 850 849 849 849 847 846 844 841 838 836 835 834 832 830 827 825 824 823 820 818 816 813 811 807 803 800 798 794 791 789 786 783 780 776 772 771 769 768 767 765 763 760 758 756 753 750 748 745 744 742 740 738 736 735 733 731 729 728 727 726 726 725 725 724 724 724 724 724 724 724 724 725 726 726
849 851 850 852 854 859 861 855 852 853 852 847 840 831 821 822 833 837 838 841 843 846 848 847 847 847 846 845 843 840 838 837 837 835 833 831 828 826 825 822 820 818 815 813 811 808 804 800 797 795 792 789 786 784 780 777 773 770 768 767 766 764 762 760 757 755 753 750 747 744 742 741 739 737 734 732 730 729 727 725 724 723 722 721 721 720 720 720 720 720 720 720 720 721 721 722 723
848 851 849 850 852 854 856 856 853 857 860 849 835 828 823 826 835 836 837 839 839 843 846 846 847 847 846 845 842 841 840 838 837 834 832 829 826 825 823 820 818 815 813 810 808 805 801 798 794 791 788 786 783 781 777 774 770 767 766 764 762 761 758 756 753 751 749 746 743 741 739 738 736 733 731 728 726 724 722 721 720 718 717 717 716 716 716 716 717 717 717 716 716 717 717 718 719
848 852 850 849 851 854 861 865 858 860 862 844 828 830 830 830 834 834 837 840 841 844 847 848 848 847 845 844 842 841 840 837 835 833 830 827 824 822 820 818 815 812 810 808 805 803 799 796 793 789 785 782 780 778 774 771 768 765 762 760 759 757 755 752 750 747 745 742 740 738 736 734 732 730 727 724 722 720 718 716 715 714 713 712 711 712 712 712 713 713 713 713 713 713 714 714 715
851 852 852 855 861 861 865 869 864 863 864 847 830 829 830 831 837 842 844 846 847 847 848 849 847 845 845 843 841 840 837 835 833 829 827 824 821 819 816 814 812 809 807 805 802 800 797 794 791 787 783 780 777 774 771 768 765 762 759 757 755 753 751 748 745 743 740 738 736 734 733 730 728 725 723 721 718 715 713 712 711 710 709 708 708 708 708 709 709 709 709 709 710 710 711 711 711
853 852 854 859 864 863 864 865 863 864 863 852 840 832 830 837 843 848 851 850 849 847 847 849 847 845 845 841 839 836 833 831 829 826 823 820 818 816 813 811 809 807 804 802 800 797 794 791 787 784 781 777 773 770 768 765 762 759 756 753 751 749 746 744 742 739 736 734 733 731 729 726 724 722 720 718 715 712 710 708 707 706 705 704 704 704 704 705 706 706 706 706 707 707 707 707 708
857 857 861 864 862 862 865 863 857 862 864 859 853 840 831 839 845 847 850 848 846 846 847 848 846 844 842 839 836 833 830 828 825 822 819 816 815 812 810 809 806 804 802 799 797 794 791 788 784 781 778 775 772 768 765 762 759 756 753 750 748 745 743 741 739 736 733 731 730 728 726 723 721 719 717 714 712 709 707 705 703 702 701 701 700 700 700 701 702 702 702 703 704 704 704 704 705
860 861 863 865 866 868 875 872 857 858 861 858 859 849 832 834 842 844 846 845 843 846 847 847 844 841 839 836 834 831 827 824 821 818 816 813 812 809 806 805 803 801 799 796 794 791 788 785 782 779 776 773 770 766 762 759 756 753 751 748 745 742 740 738 735 733 731 729 727 726 724 721 718 716 714 712 709 707 705 702 700 698 698 697 697 696 697 697 698 698 699 700 701 701 701 701 702